Temp
53 55 55 55 55 55 56 58 59 59 59 59 58 59 57 56 54 49 47 49 49 57 55 53 56 56 55 55 55 55 53 54 54 49 49 48 47 52 52 52 53 52 50 50 51 51 53 54 54 56 56 56 56 54 54 53 53 55 55 53 54 53 52 53 53 56 58 58 56 55 55 56 55 55
55 55 56 56 56 53 56 57 56 56 58 58 59 61 58 57 57 52 49 49 48 52 55 51 53 55 55 55 54 53 52 55 55 51 49 48 48 52 51 51 52 51 49 49 49 50 51 51 53 54 55 54 54 54 54 53 53 55 54 52 53 55 54 54 55 57 57 57 56 55 55 55 54 54
56 55 55 54 55 54 56 56 55 55 55 55 55 57 58 58 57 55 52 49 52 51 53 56 57 57 55 57 54 56 55 56 55 50 49 50 51 53 50 51 51 50 50 49 49 53 54 52 52 54 55 55 55 54 54 56 56 55 53 50 51 54 54 54 54 56 56 56 55 54 54 54 53 53
55 55 55 53 55 55 56 56 55 55 54 54 54 57 57 56 56 55 53 52 53 50 48 51 55 57 56 56 56 54 56 58 56 52 50 50 53 50 49 51 50 50 50 50 50 53 56 55 54 54 54 54 54 54 53 54 54 53 51 50 50 52 53 52 52 54 55 55 54 53 53 53 52 52
54 54 55 55 55 54 56 54 55 56 54 54 56 56 56 55 55 56 52 53 51 55 52 52 55 55 56 56 56 56 54 53 53 55 52 50 48 49 48 48 49 49 49 49 49 49 51 52 54 52 49 49 48 49 50 51 50 50 51 48 48 49 52 51 50 51 53 54 53 52 52 51 51 51
56 53 55 56 55 55 55 55 58 55 56 57 57 56 58 56 57 54 52 50 48 51 54 54 54 54 56 57 55 56 54 52 52 55 53 51 50 51 49 48 49 49 50 49 49 49 49 49 48 49 48 47 48 49 49 49 49 49 48 47 47 50 52 51 50 50 52 53 53 52 52 50 50 52
55 55 54 54 54 57 56 54 54 55 56 56 57 55 56 57 54 54 54 51 50 52 53 53 55 55 56 54 58 58 56 55 56 55 54 55 55 56 51 50 52 50 48 48 49 48 48 49 48 48 48 48 48 48 48 48 48 47 46 46 47 48 48 47 47 48 48 51 52 52 51 50 50 52
55 54 54 54 53 55 55 53 54 54 55 55 55 55 53 53 53 53 51 49 47 49 54 53 54 55 54 55 56 59 56 55 56 57 55 55 55 55 56 53 53 53 50 49 49 49 49 49 48 48 49 49 48 49 49 49 49 48 47 47 46 46 46 45 45 45 47 49 51 52 51 50 51 53
56 55 55 55 55 55 55 53 54 54 55 55 56 55 54 54 54 54 53 52 51 51 52 52 54 52 53 54 55 56 56 55 54 54 53 53 53 52 53 55 58 54 52 50 50 49 49 49 49 49 49 49 49 48 49 49 49 48 49 48 47 46 46 45 45 44 45 45 46 49 51 50 51 54
55 55 55 55 55 55 56 54 54 53 53 55 54 54 55 54 54 54 53 53 53 53 48 49 55 52 53 54 54 56 55 53 53 54 53 53 51 52 52 51 57 57 54 50 50 50 49 49 49 49 49 49 49 49 49 49 49 49 48 48 48 47 46 46 45 44 44 44 44 44 46 49 51 53
55 56 56 55 54 55 55 55 55 53 53 55 52 53 53 53 54 53 53 53 53 52 50 49 50 51 52 52 54 53 52 52 50 52 49 52 50 49 50 52 53 52 52 51 52 50 49 50 50 50 50 50 50 50 49 49 49 49 48 47 46 47 46 46 45 45 44 44 44 44 43 45 49 51
55 55 55 55 55 55 54 55 54 55 55 53 53 52 53 53 54 52 51 51 50 50 49 47 49 45 48 47 48 50 49 51 52 50 48 49 49 50 47 48 51 51 51 51 52 54 52 50 51 52 51 51 50 50 50 52 52 51 49 48 46 46 46 46 46 45 45 45 45 44 44 44 44 47
54 54 55 55 54 56 58 55 56 57 57 55 54 52 51 52 52 51 50 50 48 47 48 47 46 44 46 45 45 46 44 46 49 47 45 45 46 46 47 50 49 50 49 49 50 53 51 51 50 50 51 53 53 52 51 51 52 50 48 47 46 46 46 46 46 46 46 46 45 44 44 44 44 43
54 54 54 56 60 56 55 52 47 48 51 54 55 53 52 52 51 50 49 48 48 48 47 45 44 45 44 43 44 44 46 44 45 47 45 44 44 41 44 45 44 47 50 48 49 50 51 50 49 50 50 51 51 49 49 49 49 50 48 47 47 46 46 46 46 46 46 46 46 45 44 44 44 43
55 54 55 55 56 55 53 48 44 44 44 44 45 47 49 52 53 50 48 46 45 45 46 44 44 43 43 44 45 44 45 43 44 42 40 43 43 42 42 42 46 46 50 45 44 46 48 47 48 48 48 49 49 49 49 48 49 48 48 48 48 47 46 46 45 45 45 46 45 45 45 45 45 44
55 55 55 54 55 53 51 50 49 46 43 43 43 43 43 43 44 46 48 47 45 44 45 45 44 43 43 44 43 44 42 43 42 42 41 42 41 40 41 40 42 46 47 44 42 44 47 45 46 45 48 48 47 49 47 47 47 48 48 48 47 47 46 45 45 45 44 44 44 44 44 44 44 43
55 55 54 54 55 55 56 53 49 49 47 44 43 44 44 44 43 42 44 45 49 46 46 45 43 42 42 43 45 44 44 42 42 41 42 40 39 40 43 39 36 44 44 43 40 40 44 43 42 43 47 46 46 47 47 47 47 47 47 47 46 46 46 45 45 44 44 44 44 44 44 44 43 42
54 55 54 52 51 51 52 50 49 49 48 47 47 47 46 46 45 43 42 42 43 46 47 46 46 45 43 44 44 46 43 44 44 43 45 41 41 39 41 40 41 42 45 42 39 36 36 40 41 43 44 45 45 44 46 46 46 46 46 46 46 46 46 45 45 45 45 44 44 44 43 43 42 42
55 54 53 51 50 49 49 50 49 49 48 48 47 46 45 43 43 42 43 43 44 45 45 45 46 44 44 46 44 44 43 44 43 43 45 39 42 42 39 37 38 40 42 41 40 40 37 38 38 39 42 43 43 41 44 45 46 46 46 45 45 45 45 45 45 45 45 45 44 44 43 42 41 41
53 53 52 50 49 48 47 47 46 48 50 49 47 45 43 42 41 42 42 40 44 45 46 46 46 45 44 45 42 42 41 42 42 41 38 39 36 36 36 39 36 37 40 41 39 36 35 37 37 38 40 40 42 40 40 44 46 45 45 45 45 44 44 44 45 45 44 44 43 44 44 43 42 41
51 51 51 50 49 47 46 44 43 44 48 49 46 44 42 42 42 43 43 42 41 42 43 43 43 42 43 42 42 42 42 41 38 36 39 38 36 37 35 35 34 36 36 39 37 38 35 36 36 38 38 38 39 37 39 39 44 45 45 44 44 44 43 44 44 44 44 44 44 44 44 43 42 42
49 51 52 52 49 48 46 42 42 44 49 48 46 45 44 43 42 43 43 43 42 41 40 41 40 40 39 40 40 41 41 41 43 42 41 39 35 35 35 35 33 35 35 39 40 37 36 34 34 36 36 35 35 38 37 40 42 44 43 43 43 44 43 43 44 44 44 44 44 44 43 43 42 40
47 47 49 50 49 48 45 40 42 43 47 48 47 45 45 43 42 42 39 41 41 41 42 42 40 40 41 40 39 42 42 41 43 38 39 36 35 34 35 35 33 34 32 38 40 38 32 34 34 35 35 31 33 33 38 39 39 39 40 40 40 43 43 43 43 43 43 43 43 43 43 43 42 40
42 42 42 43 42 41 41 41 41 42 44 47 46 45 44 43 43 41 40 40 39 41 41 39 38 39 38 40 39 38 37 40 42 36 38 38 37 36 36 35 34 34 32 36 39 38 33 34 34 33 35 33 29 30 34 35 36 40 39 39 37 42 42 42 41 42 42 43 43 43 43 43 43 40
44 42 40 40 41 40 41 41 41 42 42 44 45 43 42 40 42 40 41 40 43 38 39 39 38 39 38 38 38 39 39 39 38 37 37 36 37 38 36 33 34 34 31 34 41 38 35 34 33 31 32 32 32 35 32 34 36 37 40 38 38 39 39 39 40 39 41 41 42 42 42 43 43 42
44 43 42 41 41 40 41 40 41 41 41 42 44 41 39 38 39 41 40 39 39 40 39 37 37 37 37 38 39 39 39 39 40 38 38 38 38 38 37 38 36 34 34 37 41 38 36 33 33 34 32 31 32 31 32 32 35 36 36 37 38 38 38 38 36 37 38 38 39 40 41 42 42 43
45 41 41 42 41 39 40 40 40 41 41 43 41 37 38 38 39 39 39 38 39 36 36 37 36 35 36 37 36 36 37 38 38 38 38 38 38 38 38 37 37 38 38 37 39 38 36 33 31 34 33 33 32 31 33 32 34 33 34 35 37 37 38 36 36 37 37 38 40 42 42 41 42 42
44 42 41 41 39 39 40 40 40 40 41 41 38 39 39 39 40 38 38 37 38 37 35 36 34 36 34 35 35 35 37 36 36 38 36 36 35 35 36 35 37 37 36 36 37 35 36 35 35 34 34 34 33 34 34 35 35 33 34 37 37 37 37 36 36 37 39 40 41 41 40 39 41 41
45 42 40 39 38 39 39 39 39 39 38 37 37 37 38 41 38 40 36 35 37 36 34 35 36 35 35 35 36 35 34 35 35 33 35 34 33 33 34 34 34 34 37 38 36 35 35 35 35 35 33 33 34 35 36 36 36 35 35 36 36 35 37 38 37 35 38 39 38 38 37 36 36 40
40 39 38 38 38 39 39 41 40 39 39 37 38 38 40 37 36 36 36 36 36 35 34 34 35 34 34 35 34 34 33 34 34 34 34 34 34 33 34 33 33 33 34 35 36 36 35 35 36 37 37 38 38 37 37 37 36 36 35 36 38 38 33 33 34 35 37 38 38 38 38 37 39 39
39 39 39 39 39 39 39 39 39 39 38 38 38 35 34 34 33 34 34 36 36 34 34 34 34 34 35 33 32 33 33 34 34 34 34 33 33 32 31 33 33 33 34 34 36 37 36 37 39 40 38 38 38 38 38 37 35 35 34 35 37 33 36 35 36 37 38 40 40 39 39 37 37 38
41 40 38 39 40 40 41 40 39 37 37 37 37 36 35 34 35 39 39 39 35 34 33 33 31 32 32 32 32 32 32 32 34 33 35 35 32 32 32 31 31 31 32 34 35 38 39 41 40 40 39 38 36 37 36 35 35 36 35 34 36 36 37 35 35 37 40 40 38 37 35 35 35 36
39 39 39 38 39 38 38 37 36 37 38 37 38 39 37 36 38 37 34 37 36 35 35 35 34 30 32 32 31 30 31 33 32 31 32 31 34 33 32 32 33 32 31 33 35 36 37 38 38 38 37 38 38 38 36 32 33 35 34 34 34 35 35 35 36 37 37 35 35 34 33 34 35 35
39 37 37 35 36 36 35 36 36 37 37 38 38 36 35 35 36 35 34 35 36 31 33 32 30 29 29 29 29 29 31 32 30 30 35 32 31 32 32 32 33 35 34 35 35 35 35 34 34 35 35 36 39 40 39 36 34 35 33 33 33 32 34 36 36 35 36 35 35 33 32 32 34 34
38 36 37 36 35 35 35 36 35 36 36 36 35 36 33 34 35 33 35 32 29 29 31 27 28 27 27 29 28 29 28 30 30 31 29 30 31 32 33 32 33 34 34 34 34 35 35 35 34 33 34 36 36 38 41 41 37 36 33 32 32 32 34 36 36 35 35 34 33 31 31 32 32 33
38 39 39 38 37 36 36 36 35 35 35 35 35 34 33 33 31 32 32 30 30 27 29 28 28 26 26 28 28 27 28 28 28 28 29 28 29 30 31 32 32 32 32 33 34 36 36 36 34 33 32 32 32 32 34 41 40 35 32 30 32 33 33 34 34 33 31 31 31 31 31 31 33 34
38 37 38 38 37 37 37 36 36 36 35 35 34 34 34 34 32 31 30 28 32 29 29 28 27 25 27 27 28 28 27 29 28 26 27 28 30 30 30 30 30 30 31 34 35 35 35 34 34 33 32 31 30 30 33 35 36 39 36 33 33 33 33 33 32 32 32 31 31 32 32 32 32 33
38 37 37 37 38 37 37 37 35 34 34 33 34 32 34 33 32 32 31 33 31 28 28 26 28 27 27 27 27 26 24 25 26 26 28 29 29 28 28 29 30 31 33 35 35 35 35 34 34 34 33 31 30 31 31 34 34 35 39 38 34 33 31 32 33 33 32 32 31 32 32 30 30 31
37 36 36 35 35 36 35 34 34 35 36 35 35 34 32 31 32 31 32 32 29 27 26 29 27 26 26 24 26 26 25 25 26 28 28 25 27 28 30 31 32 34 33 33 34 34 34 34 34 34 33 32 31 32 33 32 32 36 37 40 37 33 31 32 33 33 32 31 31 32 32 33 35 36
36 36 36 36 37 36 35 36 35 37 37 36 34 33 33 33 33 33 30 29 28 26 30 28 27 29 26 26 25 24 26 25 25 25 26 27 29 31 32 33 33 33 33 33 33 33 34 34 34 34 34 34 35 35 35 34 34 35 35 35 37 34 33 33 32 31 31 31 31 30 30 32 31 33
37 37 38 39 38 38 37 36 37 36 36 35 35 35 34 34 33 32 31 27 28 28 27 25 26 26 25 25 25 26 26 26 25 25 27 28 31 32 33 33 33 33 32 32 33 33 34 36 36 35 35 35 34 34 32 31 32 34 34 33 35 36 36 36 34 31 30 31 31 30 29 29 30 31
37 37 38 37 38 37 38 37 37 37 36 34 34 33 33 31 29 32 31 31 29 28 27 25 24 25 25 23 24 26 24 26 26 27 30 31 31 32 33 33 32 33 32 32 33 34 36 37 36 36 35 33 33 32 32 32 32 33 34 33 32 35 36 35 35 34 32 31 30 29 29 30 31 31
35 36 36 36 36 37 38 37 37 36 34 34 33 31 29 27 27 29 28 31 29 28 26 23 22 22 22 22 21 22 22 28 29 29 30 31 31 32 33 33 33 33 33 33 34 35 35 35 35 34 33 33 32 32 32 33 33 33 33 32 32 32 33 36 36 35 35 35 34 32 31 30 28 28
36 35 34 33 35 35 35 36 37 35 34 32 31 31 31 31 30 29 30 30 30 26 23 22 22 23 24 24 23 23 23 26 28 30 31 32 33 33 32 32 32 33 34 34 34 35 35 35 34 34 33 32 33 32 32 32 32 33 32 32 32 33 33 31 30 33 34 34 34 34 34 34 33 33
34 34 34 33 33 34 35 34 33 33 32 32 32 31 30 30 30 30 30 29 26 24 22 21 22 22 23 23 23 25 25 31 30 30 32 33 33 33 33 33 33 33 33 34 33 34 35 35 35 34 33 33 32 31 32 32 32 33 33 32 32 32 31 31 31 31 31 31 33 34 34 34 34 34
MSLP
1020.48 1020.44 1020.44 1020.56 1020.76 1020.88 1020.92 1021.00 1021.12 1021.32 1021.52 1021.64 1021.80 1022.00 1022.40 1022.52 1023.16 1024.04 1024.32 1024.32 1024.32 1024.04 1023.76 1024.08 1024.04 1024.04 1024.04 1024.04 1024.16 1024.20 1024.28 1024.32 1024.40 1024.52 1024.56 1024.60 1024.60 1024.60 1024.60 1024.64 1024.64 1024.68 1024.68 1024.68 1024.64 1024.64 1024.64 1024.64 1024.64 1024.68 1024.68 1024.72 1024.76 1024.80 1024.84 1024.88 1024.88 1024.84 1024.84 1024.84 1024.80 1024.80 1024.76 1024.72 1024.60 1024.48 1024.36 1024.28 1024.24 1024.16 1024.04 1023.92 1023.80 1023.64
1020.52 1020.56 1020.56 1020.56 1020.76 1021.08 1021.00 1021.08 1021.20 1021.24 1021.32 1021.52 1021.72 1021.84 1022.12 1022.32 1022.64 1023.08 1023.84 1024.20 1023.92 1023.84 1023.64 1023.64 1023.84 1024.00 1024.04 1024.04 1024.12 1024.20 1024.20 1024.32 1024.40 1024.48 1024.56 1024.56 1024.56 1024.56 1024.60 1024.64 1024.68 1024.72 1024.76 1024.80 1024.80 1024.80 1024.76 1024.76 1024.72 1024.72 1024.76 1024.80 1024.84 1024.88 1024.88 1024.88 1024.92 1024.88 1024.92 1025.00 1024.96 1024.88 1024.88 1024.80 1024.68 1024.56 1024.48 1024.36 1024.32 1024.24 1024.08 1023.96 1023.84 1023.72
1020.60 1020.64 1020.68 1020.76 1020.84 1021.04 1021.08 1021.24 1021.24 1021.24 1021.16 1021.20 1021.48 1021.64 1021.92 1022.16 1022.36 1022.64 1023.20 1023.84 1023.68 1023.64 1023.60 1023.40 1023.40 1023.60 1023.84 1023.92 1023.96 1024.12 1024.24 1024.36 1024.48 1024.56 1024.68 1024.80 1024.88 1024.88 1024.88 1024.84 1024.84 1024.84 1024.84 1024.88 1024.92 1024.88 1024.88 1024.88 1024.84 1024.80 1024.76 1024.80 1024.84 1024.92 1024.96 1024.92 1024.92 1024.96 1024.96 1025.00 1025.00 1024.96 1024.92 1024.88 1024.76 1024.64 1024.52 1024.44 1024.36 1024.32 1024.20 1024.08 1023.96 1023.80
1020.76 1020.72 1020.84 1020.96 1020.96 1021.08 1021.08 1021.16 1021.24 1021.32 1021.40 1021.36 1021.40 1021.60 1021.88 1022.16 1022.32 1022.52 1022.72 1023.00 1023.40 1023.52 1023.36 1023.32 1023.48 1023.52 1023.68 1023.88 1023.88 1023.96 1024.12 1024.32 1024.44 1024.48 1024.60 1024.68 1024.84 1025.00 1025.04 1025.00 1024.92 1024.88 1024.88 1024.88 1024.92 1024.92 1024.92 1024.96 1024.96 1024.92 1024.88 1024.84 1024.88 1024.92 1024.96 1024.96 1024.96 1024.96 1024.96 1025.00 1024.96 1024.96 1024.92 1024.88 1024.80 1024.72 1024.60 1024.52 1024.44 1024.36 1024.24 1024.12 1024.04 1023.88
1020.84 1020.88 1020.96 1021.00 1021.12 1021.16 1021.20 1021.44 1021.40 1021.44 1021.60 1021.64 1021.56 1021.64 1021.84 1022.20 1022.36 1022.36 1022.76 1023.08 1023.44 1023.36 1023.60 1023.44 1023.48 1023.60 1023.72 1023.92 1023.84 1023.92 1024.08 1024.28 1024.44 1024.48 1024.60 1024.76 1024.84 1024.96 1025.08 1025.12 1025.04 1024.96 1024.92 1024.92 1024.92 1025.00 1025.08 1025.08 1025.04 1025.00 1025.00 1025.00 1025.00 1024.96 1024.96 1024.96 1024.92 1024.92 1024.92 1024.92 1024.92 1024.88 1024.84 1024.80 1024.76 1024.68 1024.60 1024.52 1024.44 1024.36 1024.24 1024.12 1024.04 1023.88
1020.96 1020.96 1021.00 1021.12 1021.24 1021.36 1021.44 1021.52 1021.48 1021.52 1021.52 1021.52 1021.60 1021.76 1021.76 1022.08 1022.24 1022.20 1022.44 1023.00 1023.08 1023.40 1023.40 1023.52 1023.60 1023.64 1023.64 1023.68 1023.80 1023.68 1024.00 1024.20 1024.44 1024.40 1024.44 1024.76 1024.88 1024.88 1025.04 1025.08 1025.04 1025.00 1025.00 1024.96 1024.96 1025.08 1025.12 1025.12 1025.16 1025.12 1025.08 1025.08 1025.04 1025.00 1025.00 1024.92 1024.84 1024.84 1024.84 1024.80 1024.80 1024.76 1024.68 1024.68 1024.68 1024.64 1024.56 1024.48 1024.40 1024.32 1024.24 1024.16 1024.04 1023.88
1021.08 1021.04 1021.16 1021.32 1021.44 1021.48 1021.56 1021.76 1021.80 1021.68 1021.72 1021.72 1021.68 1021.84 1021.84 1021.92 1022.12 1022.16 1022.08 1022.48 1023.04 1023.28 1023.44 1023.56 1023.64 1023.60 1023.64 1023.60 1023.64 1023.64 1023.76 1024.00 1024.16 1024.28 1024.28 1024.40 1024.68 1024.76 1024.88 1024.88 1024.92 1024.88 1024.88 1024.92 1024.96 1025.12 1025.16 1025.12 1025.16 1025.20 1025.16 1025.08 1025.04 1025.00 1024.92 1024.88 1024.80 1024.72 1024.72 1024.68 1024.64 1024.60 1024.60 1024.56 1024.56 1024.56 1024.56 1024.48 1024.36 1024.28 1024.20 1024.12 1024.00 1023.84
1021.20 1021.16 1021.24 1021.40 1021.48 1021.60 1021.72 1021.88 1021.92 1021.96 1021.96 1021.92 1021.92 1021.96 1022.08 1022.04 1022.16 1022.16 1022.16 1022.20 1022.60 1023.16 1023.36 1023.68 1023.60 1023.60 1023.60 1023.52 1023.52 1023.76 1023.84 1023.84 1024.08 1024.16 1024.32 1024.52 1024.56 1024.60 1024.68 1024.80 1024.84 1024.76 1024.76 1024.88 1025.04 1025.16 1025.16 1025.16 1025.12 1025.16 1025.16 1025.12 1025.00 1024.88 1024.76 1024.64 1024.56 1024.56 1024.56 1024.52 1024.44 1024.44 1024.44 1024.44 1024.44 1024.44 1024.44 1024.44 1024.36 1024.20 1024.12 1024.08 1023.96 1023.76
1021.20 1021.20 1021.24 1021.36 1021.44 1021.56 1021.80 1021.96 1022.00 1022.04 1022.04 1022.16 1022.12 1022.16 1022.20 1022.16 1022.20 1022.24 1022.20 1022.28 1022.44 1022.80 1023.08 1023.48 1023.60 1023.60 1023.56 1023.48 1023.40 1023.44 1023.60 1023.92 1024.08 1024.12 1024.12 1024.16 1024.36 1024.48 1024.60 1024.68 1024.68 1024.68 1024.80 1024.92 1025.00 1025.08 1025.16 1025.16 1025.08 1025.04 1025.04 1024.92 1024.76 1024.68 1024.56 1024.48 1024.40 1024.36 1024.28 1024.28 1024.28 1024.28 1024.36 1024.36 1024.40 1024.44 1024.40 1024.40 1024.32 1024.20 1024.08 1024.00 1023.88 1023.68
1021.40 1021.40 1021.40 1021.40 1021.44 1021.52 1021.72 1021.96 1022.08 1022.08 1022.16 1022.28 1022.36 1022.40 1022.44 1022.40 1022.32 1022.36 1022.52 1022.48 1022.56 1022.80 1023.16 1023.24 1023.36 1023.52 1023.40 1023.44 1023.44 1023.52 1023.48 1023.68 1024.00 1024.08 1024.16 1024.24 1024.36 1024.36 1024.40 1024.56 1024.60 1024.64 1024.76 1024.84 1024.88 1024.96 1025.04 1025.04 1024.96 1024.84 1024.72 1024.68 1024.56 1024.48 1024.40 1024.32 1024.24 1024.16 1024.04 1024.04 1024.08 1024.12 1024.16 1024.20 1024.32 1024.36 1024.32 1024.28 1024.20 1024.12 1024.08 1024.00 1023.84 1023.64
1021.64 1021.60 1021.52 1021.52 1021.52 1021.64 1021.76 1021.88 1022.00 1022.08 1022.20 1022.28 1022.48 1022.52 1022.52 1022.56 1022.48 1022.60 1022.68 1022.76 1022.84 1023.00 1023.16 1023.36 1023.52 1023.52 1023.68 1023.64 1023.56 1023.80 1023.72 1023.60 1023.80 1023.88 1024.16 1024.36 1024.60 1024.72 1024.72 1024.72 1024.80 1024.80 1024.84 1024.92 1024.92 1024.96 1024.96 1024.92 1024.80 1024.68 1024.56 1024.44 1024.36 1024.28 1024.24 1024.20 1024.12 1023.96 1023.84 1023.80 1023.84 1023.88 1023.92 1024.04 1024.16 1024.16 1024.12 1024.08 1024.00 1023.96 1023.96 1023.92 1023.80 1023.64
1021.80 1021.76 1021.64 1021.56 1021.56 1021.60 1021.84 1021.92 1022.04 1022.04 1022.12 1022.28 1022.44 1022.68 1022.64 1022.64 1022.64 1022.76 1022.84 1022.88 1023.00 1023.12 1023.28 1023.48 1023.52 1023.72 1023.84 1023.92 1024.04 1023.96 1023.84 1023.84 1024.04 1024.12 1024.12 1024.20 1024.40 1024.48 1024.84 1024.84 1024.72 1024.88 1024.88 1024.92 1024.96 1024.92 1025.00 1024.88 1024.68 1024.56 1024.48 1024.36 1024.32 1024.28 1024.20 1024.04 1023.92 1023.84 1023.80 1023.76 1023.76 1023.76 1023.80 1023.88 1023.92 1023.92 1023.88 1023.84 1023.80 1023.76 1023.76 1023.76 1023.72 1023.60
1021.88 1021.96 1021.84 1021.72 1021.64 1021.68 1021.88 1022.04 1022.12 1022.08 1022.04 1022.08 1022.32 1022.56 1022.52 1022.64 1022.72 1022.84 1022.92 1023.04 1023.16 1023.40 1023.52 1023.72 1023.96 1023.84 1023.96 1024.32 1024.16 1024.28 1024.32 1024.32 1024.36 1024.56 1024.36 1024.44 1024.88 1024.92 1024.72 1025.00 1025.08 1025.12 1025.08 1025.08 1024.96 1024.80 1024.84 1024.64 1024.52 1024.52 1024.40 1024.32 1024.32 1024.24 1024.20 1024.08 1023.92 1023.80 1023.80 1023.76 1023.76 1023.72 1023.72 1023.76 1023.76 1023.72 1023.68 1023.60 1023.56 1023.56 1023.60 1023.60 1023.60 1023.52
1021.92 1021.96 1021.96 1021.96 1021.84 1021.88 1022.00 1022.16 1022.28 1022.32 1022.32 1022.28 1022.20 1022.36 1022.40 1022.56 1022.72 1022.88 1023.04 1023.16 1023.28 1023.40 1023.56 1023.76 1023.84 1023.92 1024.24 1024.68 1024.60 1024.56 1024.96 1025.08 1024.92 1024.60 1024.64 1024.68 1025.12 1025.16 1024.84 1024.92 1025.12 1025.24 1025.04 1025.00 1024.84 1024.80 1024.88 1024.92 1024.80 1024.72 1024.76 1024.64 1024.52 1024.48 1024.40 1024.36 1024.28 1024.08 1024.00 1023.88 1023.80 1023.68 1023.64 1023.60 1023.60 1023.56 1023.48 1023.44 1023.44 1023.52 1023.52 1023.48 1023.48 1023.44
1021.80 1021.96 1022.04 1022.12 1022.20 1022.20 1022.36 1022.52 1022.60 1022.64 1022.68 1022.72 1022.72 1022.76 1022.72 1022.60 1022.52 1022.84 1023.12 1023.32 1023.40 1023.52 1023.76 1024.36 1024.12 1024.16 1024.56 1025.12 1025.08 1024.96 1025.08 1025.24 1025.04 1025.16 1025.20 1025.12 1025.12 1025.08 1025.12 1024.96 1024.88 1025.16 1025.16 1025.32 1025.36 1025.12 1025.04 1025.12 1025.04 1025.00 1025.00 1024.96 1024.80 1024.76 1024.76 1024.60 1024.40 1024.32 1024.20 1024.04 1023.88 1023.76 1023.72 1023.64 1023.60 1023.52 1023.48 1023.48 1023.52 1023.52 1023.44 1023.36 1023.32 1023.28
1021.72 1021.84 1022.08 1022.28 1022.44 1022.48 1022.56 1022.76 1022.88 1023.08 1023.20 1023.16 1023.16 1023.08 1023.00 1022.92 1022.92 1022.88 1022.92 1023.24 1023.48 1023.56 1023.84 1024.16 1024.20 1024.40 1024.56 1025.00 1025.04 1024.96 1025.04 1025.12 1025.20 1025.32 1025.24 1025.20 1025.16 1025.24 1025.28 1025.44 1025.40 1025.08 1025.32 1025.44 1025.44 1025.36 1025.08 1025.20 1025.12 1025.12 1025.16 1025.12 1025.04 1025.08 1024.96 1024.76 1024.64 1024.48 1024.36 1024.20 1024.04 1023.88 1023.76 1023.68 1023.64 1023.64 1023.64 1023.60 1023.56 1023.48 1023.32 1023.24 1023.16 1023.12
1021.68 1021.92 1022.20 1022.36 1022.44 1022.68 1022.84 1022.96 1023.16 1023.20 1023.36 1023.52 1023.48 1023.44 1023.44 1023.44 1023.28 1023.20 1023.24 1023.28 1023.32 1023.68 1023.84 1024.04 1024.44 1024.56 1024.88 1024.88 1025.00 1025.08 1025.04 1025.28 1025.04 1025.20 1025.12 1025.32 1025.36 1025.48 1025.32 1025.40 1025.56 1025.08 1025.48 1025.40 1025.48 1025.44 1025.28 1025.52 1025.32 1025.24 1025.36 1025.24 1025.20 1025.16 1025.08 1024.92 1024.72 1024.60 1024.48 1024.36 1024.24 1024.08 1023.88 1023.76 1023.68 1023.64 1023.60 1023.52 1023.40 1023.28 1023.12 1023.00 1022.92 1022.88
1021.72 1022.00 1022.12 1022.24 1022.52 1022.76 1022.88 1023.12 1023.28 1023.44 1023.56 1023.68 1023.72 1023.68 1023.72 1023.72 1023.76 1023.68 1023.68 1023.72 1023.84 1023.88 1023.80 1023.96 1024.12 1024.80 1024.96 1024.68 1025.00 1025.00 1025.08 1024.88 1024.96 1025.00 1024.96 1025.24 1025.28 1025.44 1025.36 1025.40 1025.56 1025.64 1025.76 1025.40 1025.68 1025.52 1025.56 1025.88 1025.64 1025.56 1025.52 1025.48 1025.28 1025.32 1025.24 1025.00 1024.88 1024.80 1024.68 1024.56 1024.44 1024.24 1024.08 1023.88 1023.76 1023.64 1023.52 1023.40 1023.28 1023.12 1022.96 1022.84 1022.72 1022.64
1021.68 1022.04 1022.20 1022.32 1022.56 1022.80 1022.92 1023.08 1023.24 1023.40 1023.56 1023.68 1023.88 1024.04 1024.24 1024.36 1024.44 1024.36 1024.24 1024.16 1024.08 1024.12 1024.28 1024.32 1024.52 1024.80 1024.88 1024.80 1024.88 1024.96 1025.08 1024.96 1024.96 1025.08 1025.16 1025.28 1025.36 1025.48 1025.76 1025.68 1025.76 1025.80 1026.04 1025.80 1025.56 1025.64 1025.80 1026.20 1025.80 1025.80 1025.72 1025.60 1025.36 1025.44 1025.28 1025.12 1025.00 1024.88 1024.76 1024.64 1024.52 1024.36 1024.20 1024.04 1023.84 1023.68 1023.48 1023.36 1023.20 1023.04 1022.88 1022.72 1022.56 1022.44
1021.76 1022.04 1022.28 1022.56 1022.76 1022.80 1022.88 1023.00 1023.08 1023.04 1023.32 1023.48 1023.88 1024.32 1024.68 1024.76 1024.84 1024.84 1024.96 1024.84 1024.64 1024.48 1024.52 1024.60 1024.72 1024.84 1024.88 1024.96 1025.00 1025.08 1025.16 1025.20 1025.32 1025.40 1025.56 1025.60 1025.56 1025.44 1025.28 1025.32 1025.64 1025.72 1026.20 1026.16 1025.84 1025.92 1025.96 1026.32 1026.24 1026.00 1025.80 1025.64 1025.32 1025.36 1025.32 1025.16 1025.00 1024.88 1024.76 1024.64 1024.52 1024.40 1024.24 1024.04 1023.84 1023.68 1023.48 1023.32 1023.16 1022.96 1022.76 1022.56 1022.40 1022.24
1021.84 1022.08 1022.28 1022.40 1022.60 1022.68 1022.64 1022.84 1022.88 1023.00 1023.08 1023.56 1024.00 1024.36 1024.60 1024.84 1024.80 1024.88 1025.00 1024.96 1024.92 1024.84 1024.80 1024.84 1024.92 1025.04 1025.12 1025.16 1025.20 1025.32 1025.40 1025.40 1025.48 1025.40 1025.28 1025.28 1025.64 1025.44 1025.64 1025.76 1025.96 1026.08 1026.44 1026.24 1026.28 1026.16 1026.04 1026.24 1026.36 1026.16 1025.80 1025.64 1025.28 1025.28 1025.24 1025.16 1025.00 1024.80 1024.72 1024.64 1024.52 1024.36 1024.20 1024.00 1023.80 1023.60 1023.44 1023.24 1023.08 1022.88 1022.68 1022.52 1022.32 1022.16
1022.04 1022.16 1022.16 1022.28 1022.40 1022.48 1022.64 1022.80 1022.80 1022.96 1023.08 1023.48 1023.96 1024.20 1024.40 1024.56 1024.68 1024.84 1025.00 1024.96 1025.04 1025.16 1025.20 1025.24 1025.28 1025.36 1025.48 1025.64 1025.72 1025.72 1025.64 1025.64 1025.60 1025.36 1025.40 1025.72 1025.76 1025.92 1026.24 1026.24 1026.44 1026.36 1026.64 1026.32 1026.28 1025.96 1026.12 1026.28 1026.40 1026.24 1025.88 1025.64 1025.28 1025.24 1025.24 1025.04 1024.92 1024.84 1024.72 1024.56 1024.40 1024.20 1024.08 1023.92 1023.72 1023.52 1023.36 1023.16 1023.00 1022.80 1022.60 1022.40 1022.24 1022.08
1022.20 1022.40 1022.40 1022.28 1022.28 1022.36 1022.64 1022.80 1022.72 1022.84 1022.88 1023.24 1023.72 1024.04 1024.20 1024.44 1024.56 1024.72 1024.96 1024.92 1024.96 1025.08 1025.12 1025.28 1025.44 1025.60 1025.72 1025.76 1025.72 1025.72 1025.72 1025.72 1025.72 1025.68 1025.72 1025.92 1025.68 1025.92 1026.20 1026.32 1026.40 1026.16 1026.28 1026.36 1026.20 1026.04 1026.24 1026.20 1026.20 1026.28 1025.88 1025.56 1025.28 1025.36 1025.16 1024.96 1024.92 1024.76 1024.60 1024.48 1024.32 1024.08 1023.96 1023.80 1023.64 1023.44 1023.28 1023.08 1022.88 1022.72 1022.48 1022.28 1022.12 1022.00
1022.52 1022.60 1022.60 1022.64 1022.36 1022.32 1022.60 1022.64 1022.64 1022.68 1022.68 1023.04 1023.76 1023.96 1024.00 1024.28 1024.44 1024.88 1024.96 1025.04 1025.00 1025.08 1025.24 1025.40 1025.76 1025.96 1026.04 1025.96 1025.92 1025.92 1025.92 1025.88 1025.88 1025.88 1025.84 1025.76 1025.80 1025.96 1026.12 1026.40 1026.48 1026.48 1026.32 1026.24 1026.20 1026.24 1026.32 1026.40 1026.16 1026.24 1026.20 1026.20 1025.72 1025.12 1025.12 1025.00 1024.84 1024.64 1024.52 1024.36 1024.20 1024.00 1023.88 1023.72 1023.56 1023.36 1023.16 1023.00 1022.80 1022.56 1022.36 1022.16 1022.00 1021.96
1022.04 1022.40 1022.60 1022.68 1022.64 1022.32 1022.40 1022.48 1022.60 1022.68 1022.84 1023.12 1023.56 1023.68 1023.80 1024.12 1024.48 1024.88 1024.92 1025.12 1025.28 1025.24 1025.24 1025.48 1025.84 1026.08 1026.12 1026.12 1026.12 1026.04 1026.00 1026.00 1026.04 1026.04 1026.08 1026.16 1026.16 1026.24 1026.36 1026.48 1026.56 1026.52 1026.40 1026.28 1026.32 1026.36 1026.32 1026.28 1026.28 1026.20 1026.12 1026.12 1025.76 1025.48 1025.08 1025.04 1024.72 1024.60 1024.36 1024.24 1024.12 1023.92 1023.80 1023.64 1023.52 1023.32 1023.12 1022.92 1022.68 1022.48 1022.28 1022.08 1021.88 1021.80
1022.16 1022.24 1022.48 1022.56 1022.80 1022.60 1022.52 1022.60 1022.76 1022.96 1023.12 1023.28 1023.48 1023.76 1024.04 1024.44 1024.64 1024.80 1025.00 1025.12 1025.08 1025.00 1025.16 1025.60 1026.04 1026.20 1026.16 1026.16 1026.16 1026.20 1026.20 1026.28 1026.32 1026.36 1026.44 1026.52 1026.52 1026.56 1026.56 1026.52 1026.56 1026.68 1026.64 1026.36 1026.36 1026.36 1026.40 1026.32 1026.12 1026.20 1026.12 1026.08 1025.76 1025.68 1025.40 1025.04 1024.68 1024.40 1024.32 1024.20 1024.08 1023.88 1023.72 1023.56 1023.40 1023.24 1023.04 1022.84 1022.64 1022.40 1022.20 1022.00 1021.84 1021.64
1021.84 1022.40 1022.56 1022.68 1022.84 1022.72 1022.64 1022.72 1022.96 1023.12 1023.28 1023.40 1023.64 1023.96 1024.16 1024.32 1024.48 1024.60 1024.68 1024.76 1024.88 1025.00 1025.28 1025.60 1026.12 1026.40 1026.32 1026.28 1026.36 1026.44 1026.52 1026.60 1026.64 1026.72 1026.76 1026.72 1026.72 1026.68 1026.68 1026.64 1026.64 1026.64 1026.60 1026.52 1026.40 1026.36 1026.36 1026.28 1026.12 1026.12 1026.08 1025.96 1025.96 1025.68 1025.48 1025.16 1024.60 1024.32 1024.28 1024.12 1023.92 1023.76 1023.56 1023.48 1023.32 1023.12 1022.92 1022.72 1022.44 1022.20 1022.04 1021.88 1021.72 1021.56
1021.76 1022.20 1022.44 1022.56 1022.80 1022.80 1022.64 1022.84 1023.04 1023.20 1023.32 1023.60 1023.96 1024.12 1024.28 1024.44 1024.56 1024.60 1024.72 1024.76 1024.88 1025.12 1025.52 1025.76 1026.08 1026.32 1026.48 1026.48 1026.60 1026.72 1026.80 1026.84 1026.88 1026.88 1026.92 1026.84 1026.84 1026.76 1026.72 1026.68 1026.64 1026.64 1026.60 1026.52 1026.44 1026.40 1026.32 1026.28 1026.16 1025.96 1026.00 1025.96 1025.92 1025.72 1025.40 1024.88 1024.64 1024.40 1024.24 1023.92 1023.84 1023.60 1023.40 1023.32 1023.20 1023.00 1022.72 1022.56 1022.40 1022.16 1022.04 1021.88 1021.68 1021.56
1021.48 1021.76 1022.12 1022.56 1022.80 1022.72 1022.68 1022.96 1023.16 1023.48 1023.68 1023.88 1024.16 1024.36 1024.48 1024.56 1024.60 1024.56 1024.68 1024.84 1024.92 1025.08 1025.36 1025.88 1026.32 1026.36 1026.40 1026.44 1026.64 1026.88 1026.92 1026.96 1026.96 1026.88 1027.00 1026.96 1026.88 1026.84 1026.80 1026.76 1026.72 1026.64 1026.56 1026.44 1026.36 1026.32 1026.24 1026.20 1026.08 1025.92 1025.84 1025.64 1025.60 1025.36 1025.24 1024.88 1024.64 1024.32 1024.16 1024.04 1023.60 1023.32 1023.28 1023.12 1023.04 1022.92 1022.68 1022.52 1022.32 1022.12 1021.96 1021.84 1021.68 1021.52
1021.88 1022.28 1022.60 1022.88 1023.00 1023.04 1023.20 1023.16 1023.24 1023.56 1023.88 1023.96 1024.08 1024.20 1024.28 1024.40 1024.44 1024.60 1024.76 1024.92 1025.00 1025.36 1025.76 1026.04 1026.16 1026.44 1026.64 1026.68 1026.84 1027.00 1027.04 1026.84 1026.80 1026.80 1026.76 1026.68 1026.68 1026.76 1026.76 1026.72 1026.56 1026.56 1026.48 1026.40 1026.28 1026.16 1026.08 1025.96 1025.84 1025.72 1025.60 1025.40 1025.24 1025.16 1024.92 1024.80 1024.56 1024.28 1024.08 1024.04 1023.64 1023.20 1023.08 1023.00 1022.88 1022.80 1022.72 1022.48 1022.16 1021.96 1021.76 1021.76 1021.60 1021.48
1022.40 1022.84 1023.04 1023.12 1023.16 1023.28 1023.28 1023.16 1023.44 1023.56 1023.80 1023.80 1023.96 1024.12 1024.24 1024.36 1024.60 1024.76 1024.68 1024.76 1025.16 1025.56 1025.92 1026.16 1026.32 1026.48 1026.72 1026.96 1026.96 1026.76 1026.60 1026.56 1026.64 1026.64 1026.56 1026.60 1026.68 1026.72 1026.80 1026.88 1026.72 1026.64 1026.44 1026.36 1026.20 1026.04 1025.92 1025.80 1025.64 1025.56 1025.56 1025.32 1025.12 1024.92 1024.68 1024.64 1024.56 1024.24 1023.92 1023.80 1023.68 1023.68 1022.92 1022.92 1022.88 1022.72 1022.48 1022.24 1022.00 1021.80 1021.72 1021.60 1021.44 1021.28
1022.56 1022.88 1023.08 1023.20 1023.40 1023.48 1023.40 1023.64 1023.80 1023.72 1023.64 1023.68 1023.88 1024.08 1024.28 1024.56 1024.80 1024.92 1025.20 1025.44 1025.48 1025.72 1025.96 1026.20 1026.52 1026.68 1026.80 1026.60 1026.56 1026.64 1026.52 1026.56 1026.60 1026.72 1026.60 1026.60 1026.64 1026.64 1026.72 1026.80 1026.60 1026.56 1026.48 1026.28 1026.08 1025.88 1025.72 1025.60 1025.48 1025.36 1025.32 1025.20 1025.12 1024.76 1024.56 1024.48 1024.40 1024.08 1023.84 1023.60 1023.48 1023.28 1023.08 1022.96 1022.76 1022.52 1022.24 1022.12 1021.96 1021.80 1021.72 1021.60 1021.40 1021.24
1022.88 1022.80 1022.92 1023.08 1023.32 1023.32 1023.40 1023.60 1023.68 1023.72 1023.64 1023.76 1023.96 1024.08 1024.28 1024.52 1024.80 1024.84 1024.92 1025.00 1025.28 1025.68 1025.88 1025.96 1026.12 1026.28 1026.44 1026.56 1026.68 1026.56 1026.60 1026.60 1026.64 1026.72 1026.60 1026.56 1026.56 1026.48 1026.64 1026.68 1026.56 1026.56 1026.48 1026.28 1026.08 1025.84 1025.64 1025.44 1025.32 1025.24 1025.08 1024.92 1024.76 1024.60 1024.56 1024.48 1024.04 1023.84 1023.76 1023.52 1023.44 1023.24 1023.00 1022.72 1022.56 1022.36 1022.24 1022.20 1022.12 1021.92 1021.76 1021.52 1021.40 1021.28
1022.56 1023.04 1023.20 1023.36 1023.36 1023.44 1023.68 1023.84 1023.80 1023.72 1023.60 1023.64 1023.80 1024.16 1024.40 1024.52 1024.64 1024.76 1024.88 1025.04 1025.32 1025.76 1025.68 1025.92 1026.08 1026.28 1026.40 1026.44 1026.56 1026.52 1026.52 1026.60 1026.56 1026.56 1026.52 1026.40 1026.64 1026.72 1026.68 1026.72 1026.64 1026.48 1026.36 1026.20 1026.00 1025.80 1025.56 1025.36 1025.20 1025.08 1024.92 1024.68 1024.44 1024.20 1024.12 1024.16 1023.92 1023.64 1023.52 1023.48 1023.36 1023.24 1022.92 1022.72 1022.48 1022.36 1022.36 1022.32 1022.20 1022.08 1021.88 1021.48 1021.20 1021.12
1022.72 1023.28 1023.40 1023.60 1023.52 1023.64 1023.88 1024.00 1023.72 1023.72 1023.76 1023.88 1023.96 1024.20 1024.48 1024.60 1024.56 1024.64 1024.80 1025.12 1025.60 1025.68 1025.80 1025.96 1026.04 1026.20 1026.28 1026.28 1026.52 1026.48 1026.48 1026.44 1026.48 1026.40 1026.80 1026.88 1026.60 1026.52 1026.64 1026.60 1026.48 1026.32 1026.24 1026.16 1025.96 1025.68 1025.48 1025.28 1025.12 1025.00 1024.88 1024.64 1024.28 1023.72 1023.60 1023.52 1023.68 1023.44 1023.44 1023.32 1023.24 1023.16 1022.92 1022.68 1022.56 1022.40 1022.36 1022.28 1022.20 1022.12 1021.88 1021.56 1021.16 1020.84
1022.48 1022.48 1022.68 1022.84 1022.92 1023.44 1023.64 1023.32 1023.44 1023.56 1023.60 1023.92 1023.92 1024.16 1024.40 1024.52 1024.88 1024.80 1024.72 1025.36 1025.48 1025.56 1025.76 1025.88 1026.08 1026.24 1026.20 1026.24 1026.32 1026.40 1026.44 1026.52 1026.60 1026.84 1026.60 1026.60 1026.64 1026.52 1026.48 1026.36 1026.32 1026.24 1026.24 1026.12 1025.88 1025.60 1025.44 1025.32 1025.24 1025.24 1025.08 1024.80 1024.64 1024.20 1023.64 1023.28 1023.28 1023.24 1023.36 1023.24 1023.08 1023.04 1022.88 1022.68 1022.52 1022.52 1022.48 1022.32 1022.16 1022.12 1021.92 1021.48 1021.16 1020.80
1021.80 1021.96 1021.84 1021.84 1022.60 1023.12 1022.84 1022.72 1022.92 1023.52 1023.76 1023.88 1024.08 1024.12 1024.16 1024.32 1024.80 1025.08 1025.20 1025.60 1025.44 1025.60 1025.72 1025.96 1026.00 1026.12 1026.16 1026.20 1026.36 1026.44 1026.72 1026.84 1026.68 1026.68 1026.64 1026.64 1026.60 1026.56 1026.40 1026.36 1026.36 1026.36 1026.24 1025.96 1025.76 1025.56 1025.44 1025.40 1025.24 1025.28 1025.12 1024.84 1024.64 1024.48 1023.84 1023.20 1023.16 1023.04 1023.08 1023.16 1022.96 1022.88 1022.88 1022.76 1022.68 1022.44 1022.28 1022.28 1022.12 1022.00 1021.84 1021.56 1021.20 1020.84
1021.44 1021.72 1021.68 1021.92 1022.20 1022.52 1022.08 1022.44 1023.24 1023.68 1023.80 1023.92 1024.00 1024.24 1024.20 1024.40 1024.96 1025.36 1025.56 1025.32 1025.40 1025.68 1025.84 1025.92 1026.04 1026.24 1026.44 1026.64 1026.56 1026.68 1026.92 1027.00 1026.96 1026.72 1026.72 1026.72 1026.68 1026.52 1026.48 1026.44 1026.40 1026.32 1026.16 1025.84 1025.64 1025.48 1025.40 1025.36 1025.24 1025.12 1025.08 1024.92 1024.72 1024.40 1024.04 1023.20 1023.08 1022.96 1022.92 1022.96 1023.04 1022.72 1022.76 1022.76 1022.52 1022.40 1022.24 1022.16 1022.16 1021.96 1021.84 1021.68 1021.32 1020.96
1021.64 1021.76 1021.84 1022.12 1022.20 1022.08 1022.36 1022.80 1023.36 1023.72 1023.92 1024.00 1024.12 1024.12 1024.36 1024.84 1025.12 1025.20 1025.00 1025.12 1025.48 1025.72 1026.04 1026.16 1026.32 1026.52 1026.48 1026.60 1026.84 1026.88 1026.80 1026.84 1026.76 1026.76 1026.76 1026.72 1026.68 1026.52 1026.40 1026.36 1026.28 1026.12 1026.04 1025.88 1025.56 1025.36 1025.20 1025.16 1025.04 1024.96 1024.92 1024.84 1024.64 1024.40 1024.24 1024.12 1023.48 1022.76 1022.76 1022.84 1022.88 1022.80 1022.64 1022.64 1022.60 1022.44 1022.36 1022.28 1022.16 1022.08 1021.76 1021.40 1021.00 1020.72
1021.80 1021.60 1021.52 1021.44 1021.40 1021.96 1022.28 1022.76 1023.16 1023.40 1023.68 1023.92 1024.12 1024.20 1024.48 1024.92 1024.96 1025.00 1025.12 1025.40 1025.80 1026.16 1026.32 1026.52 1026.64 1026.60 1026.68 1026.84 1027.04 1027.20 1027.12 1027.00 1026.92 1026.88 1026.84 1026.76 1026.56 1026.48 1026.36 1026.32 1026.32 1026.24 1026.12 1025.88 1025.60 1025.24 1025.08 1024.88 1024.72 1024.64 1024.56 1024.44 1024.28 1024.08 1024.00 1023.92 1023.60 1023.16 1022.80 1022.60 1022.64 1022.64 1022.60 1022.60 1022.60 1022.60 1022.44 1022.48 1022.40 1022.12 1021.72 1021.28 1021.08 1020.84
1021.52 1021.68 1021.56 1021.28 1021.44 1021.88 1022.32 1022.80 1023.08 1023.40 1023.60 1023.80 1023.96 1024.36 1024.60 1024.80 1024.76 1024.92 1025.28 1025.72 1025.92 1026.12 1026.40 1026.68 1026.68 1026.80 1026.92 1027.08 1027.12 1027.08 1027.08 1027.04 1026.92 1026.84 1026.76 1026.60 1026.40 1026.36 1026.40 1026.36 1026.24 1026.08 1026.08 1025.76 1025.44 1025.16 1024.84 1024.52 1024.32 1024.24 1024.24 1024.16 1024.00 1024.00 1023.92 1023.68 1023.16 1022.52 1022.40 1022.56 1022.72 1022.60 1022.56 1022.56 1022.56 1022.68 1022.72 1022.64 1022.44 1022.20 1021.92 1021.72 1021.52 1021.20
1021.28 1021.04 1021.16 1021.40 1021.32 1021.72 1022.20 1022.60 1023.00 1023.16 1023.36 1023.68 1024.00 1024.36 1024.72 1025.00 1025.24 1025.56 1025.76 1026.00 1026.16 1026.32 1026.52 1026.76 1026.96 1027.04 1027.20 1027.28 1027.24 1027.12 1026.96 1026.88 1026.72 1026.60 1026.48 1026.44 1026.44 1026.32 1026.24 1026.24 1026.20 1025.96 1025.92 1025.72 1025.36 1025.00 1024.52 1024.24 1024.16 1024.08 1023.96 1023.92 1023.84 1023.76 1023.48 1023.32 1023.08 1022.68 1022.44 1022.48 1022.76 1022.76 1022.72 1022.68 1022.68 1022.68 1022.68 1022.60 1022.48 1022.28 1022.08 1021.68 1021.56 1021.28
1021.32 1021.24 1021.28 1021.48 1021.52 1021.80 1022.08 1022.40 1022.80 1023.04 1023.44 1023.64 1024.04 1024.56 1024.92 1025.24 1025.48 1025.60 1025.80 1025.96 1026.24 1026.36 1026.56 1026.92 1027.16 1027.24 1027.36 1027.44 1027.40 1027.20 1026.92 1026.64 1026.52 1026.40 1026.36 1026.44 1026.52 1026.48 1026.32 1026.16 1026.08 1025.92 1025.76 1025.48 1025.08 1024.76 1024.40 1024.16 1024.04 1023.92 1023.80 1023.80 1023.64 1023.60 1023.44 1023.08 1022.96 1022.76 1022.56 1022.48 1022.60 1022.76 1022.76 1022.72 1022.68 1022.68 1022.60 1022.52 1022.48 1022.40 1022.32 1022.20 1022.12 1021.64
1021.16 1021.36 1021.64 1022.08 1022.20 1022.36 1022.56 1022.52 1022.64 1023.00 1023.32 1023.80 1024.24 1024.52 1024.64 1024.96 1025.44 1025.84 1026.00 1026.16 1026.24 1026.52 1026.88 1027.00 1027.20 1027.24 1027.20 1027.20 1027.12 1027.04 1026.88 1026.60 1026.44 1026.44 1026.44 1026.40 1026.36 1026.32 1026.28 1026.12 1025.96 1025.72 1025.48 1025.28 1024.96 1024.52 1024.20 1024.00 1023.84 1023.80 1023.72 1023.48 1023.40 1023.40 1023.16 1023.00 1022.76 1022.52 1022.48 1022.52 1022.56 1022.56 1022.56 1022.60 1022.60 1022.56 1022.52 1022.48 1022.40 1022.28 1022.12 1022.04 1022.00 1021.92
1021.28 1021.44 1021.76 1021.96 1022.20 1022.40 1022.60 1023.12 1023.32 1023.44 1023.60 1023.92 1024.28 1024.68 1025.16 1025.56 1026.00 1026.32 1026.52 1026.56 1026.68 1026.88 1027.00 1027.12 1027.16 1027.28 1027.32 1027.16 1027.00 1026.80 1026.84 1026.76 1026.56 1026.48 1026.48 1026.40 1026.28 1026.20 1026.16 1026.04 1025.88 1025.60 1025.32 1025.08 1024.96 1024.56 1024.12 1023.92 1023.68 1023.56 1023.52 1023.32 1023.28 1023.12 1022.88 1022.88 1022.68 1022.40 1022.40 1022.40 1022.44 1022.60 1022.64 1022.56 1022.48 1022.52 1022.68 1022.52 1022.32 1022.24 1022.16 1022.04 1021.96 1021.84
Wind_Speed
4 5 5 6 6 4 4 4 5 6 5 6 6 6 7 7 9 5 3 3 4 5 2 3 2 3 3 5 4 5 5 6 6 4 4 4 3 5 6 6 5 5 5 4 4 5 5 5 5 4 4 4 4 4 3 4 5 5 7 7 7 6 7 6 6 6 7 8 9 9 9 10 11 12
4 4 5 5 6 3 4 5 3 3 5 6 7 8 6 6 9 7 7 5 3 3 2 2 3 3 4 4 4 3 3 5 4 3 4 4 3 6 6 5 5 5 5 4 4 4 4 4 5 4 3 1 1 2 2 2 2 4 4 4 5 6 6 6 7 7 7 7 8 8 9 10 11 11
5 5 5 4 5 3 5 5 4 2 3 4 6 8 7 7 6 8 6 5 3 3 3 1 1 5 5 4 4 3 3 4 3 3 2 1 2 4 3 4 4 4 4 3 3 4 4 4 4 5 4 3 2 1 2 2 2 2 2 2 2 4 5 5 5 6 6 6 7 7 8 8 9 10
4 5 5 4 4 3 5 5 4 4 3 2 5 7 7 6 6 6 5 5 6 4 3 4 3 5 5 4 4 3 2 3 5 2 2 2 4 1 0 2 4 4 4 4 4 4 3 3 4 3 3 3 2 2 2 3 2 1 0 1 1 2 2 3 3 4 4 5 6 6 6 7 8 9
4 4 4 4 4 4 7 5 4 4 4 3 4 6 7 7 5 7 4 6 4 1 0 2 4 4 5 4 4 4 4 3 3 2 1 1 3 2 1 2 5 5 5 5 6 5 5 5 5 5 5 4 4 4 4 4 4 3 2 1 1 2 1 0 0 2 3 4 4 4 5 6 7 8
3 4 5 5 5 5 6 5 5 3 4 4 6 4 7 7 6 4 5 3 5 4 1 2 0 3 4 4 3 6 6 4 3 4 3 2 2 3 4 3 4 7 7 7 7 5 5 6 7 7 6 5 5 5 5 5 6 5 5 4 4 3 3 3 2 0 2 3 4 3 4 5 6 8
2 4 4 4 4 3 6 5 4 4 5 4 6 4 4 6 4 2 5 6 3 5 3 2 4 4 4 5 6 6 4 4 5 4 5 5 4 3 4 4 4 7 9 8 7 5 5 6 6 8 8 7 7 7 7 7 7 7 6 6 6 6 5 5 3 2 2 3 4 4 4 4 6 7
3 4 4 3 4 4 5 4 4 4 4 5 4 4 3 4 3 2 3 3 5 3 5 1 3 3 4 5 2 3 3 4 5 4 1 1 3 3 4 3 4 5 8 8 6 4 5 7 7 8 8 8 9 9 9 10 9 7 7 7 7 8 7 6 6 4 3 4 5 6 5 6 8 9
4 4 4 4 4 5 5 3 4 4 5 4 5 5 3 4 3 3 3 4 4 5 4 2 0 1 1 2 1 4 4 2 2 1 2 3 3 3 1 1 3 4 4 3 4 4 4 7 8 8 8 9 10 10 11 11 11 10 8 8 8 8 8 7 6 5 4 4 4 5 6 7 8 10
3 4 4 4 4 5 6 4 2 3 5 4 4 4 4 4 4 5 4 4 5 5 3 2 2 2 2 1 0 0 3 5 4 4 3 4 3 1 1 2 2 1 2 1 2 3 4 6 9 9 9 9 9 10 10 10 10 11 10 8 8 8 9 8 6 6 6 6 6 6 5 6 8 9
2 3 3 4 4 4 5 5 4 4 4 5 4 4 4 4 6 5 4 5 5 5 4 3 1 1 1 1 1 2 2 4 2 4 3 3 2 1 2 3 2 3 4 3 2 3 4 6 5 5 7 9 9 10 10 10 9 9 8 6 7 9 9 8 7 7 7 7 7 7 6 5 7 8
1 2 3 3 3 4 3 4 4 4 5 4 4 2 4 4 6 5 4 5 5 4 4 3 2 3 1 3 2 1 4 3 2 3 2 2 1 4 3 3 4 3 4 5 4 3 2 3 3 5 6 7 9 10 9 10 12 11 8 5 6 7 8 7 8 9 9 9 8 8 6 6 6 7
2 2 1 2 3 3 4 4 4 4 5 5 5 2 4 5 6 4 5 5 6 5 5 3 2 3 5 4 2 4 3 2 2 2 2 2 3 3 4 2 2 2 3 3 3 3 4 7 7 7 7 8 9 10 11 8 11 11 8 6 6 7 7 8 9 9 10 10 9 8 7 6 7 7
2 3 2 1 6 8 8 7 8 8 6 5 5 6 5 6 5 5 5 4 5 5 5 2 2 4 3 2 1 3 1 1 1 5 5 3 3 1 2 1 1 2 5 6 7 7 4 5 6 6 7 7 7 6 7 8 9 12 13 10 7 7 7 8 9 10 11 10 9 7 8 8 8 9
4 3 2 2 5 6 6 5 8 9 9 9 8 7 5 3 6 6 5 4 4 4 4 2 4 5 4 2 0 3 3 2 3 2 3 3 3 4 3 3 6 0 6 3 4 6 4 3 5 5 5 6 6 7 7 12 14 14 15 14 13 10 8 8 8 9 9 9 8 8 9 10 9 9
5 4 4 3 3 3 4 5 5 7 9 9 9 9 9 9 8 5 6 5 3 4 5 4 2 4 3 1 1 1 2 2 3 2 3 3 2 2 1 0 1 4 4 3 2 5 4 4 4 4 4 5 4 5 10 13 14 14 14 14 15 14 12 9 7 7 8 9 9 10 11 11 10 10
4 3 4 4 3 4 7 5 5 6 6 7 9 9 10 10 9 9 8 5 5 6 6 6 2 2 3 3 1 1 2 2 3 0 2 1 1 1 0 2 1 5 3 3 3 2 4 5 4 4 5 5 4 5 9 13 14 15 14 15 15 15 14 11 9 7 8 9 11 12 12 12 11 9
4 5 6 6 4 3 4 5 6 5 6 5 4 5 5 5 7 9 10 9 8 4 5 6 5 2 3 3 2 1 3 2 1 1 1 1 0 1 1 2 2 3 4 3 1 1 3 5 4 4 6 5 4 4 6 11 12 12 12 13 13 14 14 13 12 10 10 10 10 10 10 10 10 9
5 6 6 6 6 5 5 5 7 7 6 5 6 6 5 5 5 4 4 3 3 3 4 4 5 4 3 4 4 2 2 1 2 2 1 2 2 1 1 1 1 3 5 3 2 0 1 3 4 3 5 5 4 2 4 9 10 10 10 10 10 11 11 11 11 11 11 11 10 8 7 7 6 6
6 7 7 7 6 5 5 6 11 9 7 7 7 6 4 4 3 3 3 4 2 4 6 5 5 5 4 5 3 3 2 2 2 2 3 3 3 2 3 1 4 2 4 4 3 1 1 1 2 3 5 3 5 3 2 5 8 8 7 7 8 8 8 8 9 10 11 11 10 10 10 9 8 8
7 7 7 7 7 6 5 6 11 12 11 7 7 7 5 4 4 3 2 5 7 5 5 5 5 4 3 3 3 2 2 1 2 2 4 2 1 5 3 3 4 2 2 3 2 1 1 1 1 5 4 3 4 2 3 3 5 9 7 6 7 6 6 7 8 9 10 10 9 10 11 11 9 8
6 7 11 9 8 7 6 8 12 13 11 8 8 7 7 5 4 1 1 2 2 6 6 5 3 2 2 5 5 3 2 3 3 2 1 0 3 4 3 0 1 3 2 2 1 2 1 2 1 2 4 3 2 0 2 3 5 6 5 6 7 8 7 7 8 9 9 9 10 11 11 11 8 4
5 4 7 10 10 9 9 12 12 12 10 8 8 8 8 6 5 4 3 3 2 0 0 1 1 3 3 1 1 1 2 3 4 3 3 3 4 3 1 0 1 3 1 2 0 4 3 2 2 1 4 2 5 2 2 4 4 4 4 4 5 8 8 9 9 9 9 10 11 11 11 11 8 4
2 3 4 4 10 13 13 13 13 12 12 9 7 7 7 7 5 3 3 2 2 1 1 1 4 5 4 5 4 4 3 2 2 3 3 3 5 3 1 0 1 1 2 2 2 3 2 1 3 0 2 3 4 2 4 4 4 5 5 5 4 7 7 7 7 9 10 10 11 11 11 11 10 5
7 5 4 3 6 12 12 12 12 12 12 11 8 7 6 4 5 5 4 2 3 2 2 4 6 5 5 4 4 5 5 5 4 3 3 3 2 3 2 2 1 1 2 3 1 1 2 1 3 1 2 1 3 5 4 4 5 5 5 4 5 6 4 6 4 6 7 9 10 11 10 11 12 8
6 7 7 6 7 10 12 12 12 13 12 11 7 6 9 10 11 6 4 4 3 3 6 7 6 4 6 6 6 6 6 6 6 6 6 5 5 4 3 2 1 1 2 4 3 0 0 2 2 2 3 2 5 3 6 5 5 6 4 4 5 6 4 6 6 6 6 6 6 6 8 11 10 10
8 5 6 6 9 11 13 13 13 12 12 9 7 10 9 9 9 6 5 4 5 5 6 7 6 4 4 6 6 6 6 6 5 6 5 5 5 4 4 4 2 0 3 4 3 1 0 2 1 2 4 3 5 4 4 4 6 4 5 6 5 6 6 5 6 6 6 6 6 9 9 8 9 10
8 8 7 8 12 12 14 14 13 12 10 9 10 9 9 8 6 4 5 5 6 5 7 7 6 5 3 6 6 4 4 4 4 5 4 4 4 3 3 3 3 2 3 3 4 3 2 2 3 3 3 4 5 5 6 4 5 5 6 6 5 6 6 4 6 5 5 5 5 5 5 6 5 5
8 9 12 13 13 13 14 14 13 9 11 12 10 10 9 7 4 6 6 6 6 7 6 6 6 4 3 4 4 4 3 2 1 2 2 2 2 2 1 2 2 3 2 3 3 3 2 3 4 4 3 3 4 5 4 6 4 6 5 6 7 4 5 6 5 5 5 6 6 6 6 5 5 4
10 11 11 12 11 11 10 9 7 6 7 10 10 10 7 5 7 6 7 5 6 6 5 6 6 5 4 3 3 3 3 4 3 2 1 3 4 3 3 5 6 4 4 4 4 4 3 3 4 3 4 5 4 5 5 5 6 6 5 5 7 7 3 4 5 6 5 6 6 6 6 4 5 4
9 8 7 6 6 6 8 8 7 7 7 7 6 5 5 5 5 5 5 7 7 6 6 5 5 4 4 2 2 1 3 3 1 2 2 2 2 1 1 0 4 5 6 5 4 4 4 4 4 3 4 5 5 5 5 5 6 7 7 5 5 6 6 5 5 5 5 5 5 5 4 4 6 5
7 7 7 8 5 4 5 5 3 3 4 5 5 5 5 5 4 6 7 6 5 4 5 5 4 2 2 3 3 2 3 2 0 0 1 0 2 3 1 2 4 3 4 5 5 5 4 4 4 4 4 4 5 6 4 5 6 7 7 6 5 6 5 6 6 5 4 4 5 5 5 6 6 6
7 7 7 7 6 6 6 3 3 3 4 4 4 4 4 4 6 6 6 7 6 6 6 6 5 4 3 2 1 2 2 1 1 1 1 1 2 4 0 3 5 5 5 6 5 5 4 5 4 4 5 5 5 6 5 6 5 5 5 6 5 5 5 6 6 6 4 4 5 5 7 6 5 6
7 5 7 5 6 5 4 3 3 3 4 4 3 2 3 4 6 5 4 6 6 4 5 5 5 4 3 3 2 2 2 2 3 3 3 3 1 1 2 4 4 4 4 5 5 6 5 4 5 5 4 4 5 6 6 5 6 6 5 3 4 5 6 5 6 5 4 4 5 6 6 7 6 5
7 6 6 5 5 6 5 5 5 3 3 3 5 2 1 2 4 4 5 4 4 5 5 3 3 4 4 4 3 3 4 3 3 4 3 1 1 1 2 3 4 4 4 5 5 5 5 5 6 6 4 4 5 4 5 6 4 5 3 4 4 4 5 5 6 6 5 5 3 5 6 6 7 5
9 10 10 9 8 7 7 7 5 5 5 5 5 4 3 3 2 3 4 4 5 4 5 4 3 3 3 3 3 3 3 3 1 2 2 3 3 2 2 2 3 4 4 5 6 5 4 5 5 6 6 5 5 6 4 3 3 3 3 4 4 4 5 6 5 5 5 5 4 3 5 6 7 7
10 9 9 10 9 8 8 6 6 6 6 5 5 5 6 6 4 2 2 4 5 4 5 5 5 3 2 2 2 2 1 0 1 1 2 1 1 0 1 3 3 4 5 5 4 5 4 5 5 4 5 5 5 5 7 3 3 5 3 3 5 4 5 6 6 6 5 3 5 4 5 6 7 7
10 8 9 9 10 10 7 4 4 4 5 5 5 5 5 3 5 4 4 6 5 4 3 4 1 0 0 0 0 1 1 1 0 2 1 0 0 2 2 3 4 4 5 6 5 5 4 4 4 4 4 5 5 5 7 6 5 3 3 1 5 7 4 4 5 5 6 3 4 5 6 6 6 6
4 6 6 6 6 6 5 5 5 5 5 5 5 6 5 5 6 4 5 6 5 5 4 5 4 3 2 1 0 0 1 2 2 1 0 1 2 2 3 4 5 5 5 6 6 5 4 4 4 4 3 4 4 5 5 6 7 7 3 4 5 6 4 2 4 4 4 5 6 6 5 5 7 8
2 6 7 7 7 6 6 6 5 5 5 5 5 6 7 7 6 6 5 6 5 4 6 5 4 5 4 3 4 3 2 2 1 1 1 3 3 2 4 4 4 4 5 6 6 6 5 5 5 4 5 5 6 6 5 6 7 6 8 4 2 4 3 2 2 3 3 3 5 6 7 6 6 4
2 3 4 4 5 6 6 5 6 5 6 6 7 6 7 7 7 6 5 5 6 7 6 4 5 4 3 2 2 4 2 0 1 1 2 3 4 4 4 4 5 4 4 6 6 7 7 6 7 8 6 5 5 3 2 3 5 5 4 1 4 4 2 2 1 1 2 4 5 5 5 5 5 4
4 4 3 2 4 5 6 6 5 6 6 7 7 7 6 5 5 7 7 6 7 6 6 5 4 3 2 2 2 3 2 0 1 2 3 3 3 4 5 3 4 5 4 6 7 7 8 7 6 5 4 3 2 1 3 4 6 6 5 1 1 3 3 3 3 2 0 3 4 3 4 4 3 3
4 4 2 2 3 5 6 6 7 7 6 6 7 7 7 7 7 7 6 6 6 6 6 4 2 2 1 1 2 2 2 0 1 2 3 2 2 3 5 5 5 5 5 6 7 7 7 6 5 5 4 2 2 2 4 5 5 5 4 2 0 1 1 1 1 3 3 4 4 2 2 2 2 2
5 5 5 2 2 2 1 3 8 7 8 8 7 7 8 8 7 6 6 6 6 6 4 4 1 1 0 0 0 0 2 3 2 1 2 3 4 4 4 5 5 6 5 5 6 7 6 5 4 4 4 3 2 2 5 5 5 4 3 0 1 2 1 1 1 2 2 2 6 7 5 3 5 5
5 5 5 5 6 6 7 5 5 6 7 8 8 8 8 8 7 6 5 6 6 5 3 2 1 0 0 1 1 1 2 2 1 1 1 3 4 4 4 4 5 6 6 5 5 7 6 6 5 3 2 4 2 3 5 5 5 5 1 2 1 0 1 0 1 2 3 4 4 7 6 5 2 2
Wind_Direction
81 66 65 92 82 51 70 97 132 155 161 162 158 158 165 160 135 148 145 196 163 226 174 146 209 186 169 158 173 154 166 167 156 148 147 152 156 150 138 133 124 116 116 117 112 108 105 98 90 79 64 54 52 50 47 49 33 35 34 23 19 32 32 25 9 18 24 25 23 14 9 9 5 358
76 77 61 58 69 65 83 91 106 135 166 162 168 165 164 161 154 154 151 192 209 194 238 174 156 184 196 167 169 173 176 181 160 157 162 176 180 171 155 147 141 141 146 146 148 149 151 149 140 137 132 97 59 17 16 48 43 39 49 33 20 32 41 30 15 22 24 22 20 14 10 7 0 354
77 76 68 56 68 74 97 98 105 121 125 128 137 157 158 164 156 147 136 129 237 148 199 256 174 164 193 183 166 174 177 179 171 172 171 183 206 164 154 156 161 167 176 180 190 197 189 188 182 172 171 180 188 218 311 331 354 27 61 67 43 39 52 41 17 17 21 20 17 15 7 2 354 349
87 85 75 63 68 63 74 66 75 88 70 107 133 145 151 148 148 139 135 137 178 211 183 191 181 172 168 177 167 197 184 162 183 196 180 183 152 119 34 213 200 197 205 213 223 242 233 228 230 234 217 211 217 224 259 289 300 285 193 111 48 33 53 52 26 11 14 16 17 12 3 357 351 345
88 87 84 64 48 60 73 73 71 63 78 94 104 121 123 129 148 132 125 128 135 93 197 148 180 187 150 182 199 185 198 166 187 205 218 155 159 151 176 256 253 233 222 222 233 246 262 265 262 257 258 246 236 230 233 240 246 252 239 195 201 245 202 272 70 359 353 7 8 356 356 352 346 344
68 87 81 55 51 58 78 71 66 69 68 91 98 102 124 131 147 166 115 139 132 170 61 75 34 173 187 180 197 191 184 193 162 197 211 165 182 179 179 210 242 239 237 234 235 241 259 275 287 286 274 272 267 262 252 247 245 241 240 219 208 220 213 216 227 295 343 347 341 338 351 350 342 339
73 72 67 50 50 65 70 63 69 64 72 78 94 96 106 128 156 179 141 125 121 147 166 164 166 199 205 185 193 204 187 147 179 185 210 199 190 189 183 204 231 231 233 236 237 235 258 272 283 294 294 291 290 287 284 276 265 253 244 230 218 221 215 211 216 236 275 307 326 330 329 333 330 331
100 114 86 62 84 86 83 71 78 72 74 74 86 90 79 103 103 116 113 116 132 161 136 213 170 220 191 245 236 138 169 158 171 215 188 138 194 195 193 196 228 238 232 235 243 253 269 285 288 294 305 312 309 303 298 297 292 279 255 238 225 218 218 219 219 223 253 292 311 325 333 330 329 338
127 120 116 114 116 106 98 77 85 95 85 75 80 82 78 86 91 73 85 101 104 122 148 149 225 194 216 254 231 146 135 95 64 62 159 188 188 227 245 214 241 245 240 242 256 265 284 286 291 294 296 295 294 296 294 294 296 294 277 247 232 223 222 224 220 222 229 251 273 296 317 325 323 334
130 123 122 125 131 125 125 143 138 106 110 99 90 88 81 90 85 86 71 88 102 108 112 137 139 40 99 37 27 103 152 136 102 75 64 68 61 66 27 358 319 47 64 16 340 326 284 273 272 269 271 282 289 291 291 290 292 289 285 262 234 224 224 223 217 221 232 244 255 263 281 302 314 325
140 128 123 124 129 132 141 147 152 134 106 106 104 109 105 93 92 81 78 82 91 104 106 57 90 65 7 92 77 11 71 89 127 132 81 56 353 48 104 60 18 64 45 26 337 278 258 259 265 291 300 299 299 297 297 292 288 294 296 266 232 227 225 220 213 219 229 240 248 254 261 276 292 306
165 162 143 130 138 138 150 151 155 138 130 115 102 101 110 101 95 95 86 73 77 77 62 60 31 8 25 358 351 4 38 45 20 47 122 116 0 360 355 41 74 10 48 15 350 335 329 314 325 334 316 307 308 314 325 337 337 335 334 296 251 239 235 221 215 220 230 238 245 249 255 261 268 282
183 191 187 129 121 117 113 129 144 150 145 131 119 131 121 113 108 99 91 102 95 78 87 60 28 40 33 6 26 33 21 81 148 326 45 67 352 350 25 21 24 51 33 331 341 336 13 1 356 355 348 345 351 344 345 334 335 341 347 315 272 253 243 231 224 226 232 240 247 251 264 274 278 276
198 185 197 180 125 115 113 107 106 108 112 116 133 159 135 125 113 120 115 106 108 104 96 98 90 78 50 15 48 97 15 313 21 49 43 62 322 26 357 323 283 308 27 19 3 335 358 16 344 352 352 337 351 344 349 342 345 351 348 333 299 265 249 236 230 232 238 245 252 264 275 281 284 285
187 184 174 129 121 107 89 77 84 94 94 88 83 75 86 126 142 128 110 124 134 121 120 139 103 112 111 39 20 118 106 47 79 116 117 105 62 69 51 334 314 356 47 27 14 327 330 30 355 334 351 342 350 9 8 15 25 23 20 12 359 333 298 264 249 248 254 265 281 286 282 282 281 280
177 170 159 140 130 117 121 119 96 81 82 94 97 90 80 73 73 117 143 139 108 122 122 107 135 125 138 136 79 60 67 93 68 61 95 96 111 85 81 195 250 272 54 38 10 324 307 20 20 4 349 348 356 22 26 33 35 32 28 26 22 15 0 334 302 291 293 299 303 298 291 287 284 280
180 152 129 127 121 129 130 111 108 112 93 76 82 84 76 61 63 66 82 104 136 143 117 130 159 169 163 104 57 208 158 160 101 90 64 101 114 147 168 243 258 306 28 55 55 355 317 15 11 10 348 350 357 19 27 39 38 31 26 24 22 22 21 14 0 341 325 315 309 305 301 297 292 286
165 145 146 137 126 128 128 130 128 122 117 119 94 66 55 56 46 49 54 67 77 93 141 145 156 207 141 153 193 219 148 107 149 126 284 185 125 159 208 222 225 298 4 79 106 6 324 358 26 6 333 338 346 18 28 44 40 34 28 27 22 19 17 16 10 359 343 332 325 318 310 305 300 290
153 144 141 137 139 142 142 153 152 138 138 117 94 76 59 46 37 41 34 34 70 88 97 112 124 153 169 158 179 197 171 159 185 167 194 185 186 192 331 14 333 17 21 41 93 338 283 340 27 328 317 322 324 7 2 41 39 34 29 27 22 16 14 10 4 356 349 344 338 335 332 318 306 293
138 138 135 132 137 144 149 166 156 139 129 112 103 94 82 67 52 38 354 353 57 115 121 130 142 164 182 170 175 181 165 132 107 72 53 58 45 54 46 15 318 27 327 40 71 66 312 347 49 306 294 325 315 328 345 5 25 27 26 21 12 5 2 359 353 346 343 341 337 339 335 332 331 330
133 138 139 137 136 135 141 163 152 147 131 122 122 120 111 108 96 71 14 23 33 55 108 137 151 154 148 156 162 153 138 129 131 75 45 358 43 57 29 335 5 327 324 356 62 133 297 316 39 311 298 301 294 317 342 327 352 8 8 359 347 344 336 336 336 334 334 332 328 328 328 324 325 326
132 145 146 141 139 138 152 161 147 152 144 136 137 132 129 125 120 144 346 24 11 15 21 30 34 54 21 27 33 28 22 30 44 75 58 240 98 80 117 229 255 280 339 318 308 54 248 295 309 288 285 323 272 266 296 345 350 337 322 317 319 322 319 313 317 322 324 320 317 320 322 319 319 316
122 138 151 150 146 144 156 157 148 148 144 143 148 147 134 136 147 192 175 153 128 157 131 20 33 25 13 99 112 77 112 99 80 92 135 146 98 123 140 179 356 5 313 290 1 35 296 26 294 50 341 329 282 265 284 331 292 295 290 287 301 302 309 310 312 315 315 312 312 316 318 317 319 308
104 125 132 142 140 138 144 140 135 135 132 136 142 135 133 135 158 191 162 181 136 125 96 59 60 77 66 62 67 61 58 61 102 128 138 133 120 121 140 167 156 210 242 278 50 40 286 116 293 225 207 285 303 291 333 302 286 286 287 291 300 300 308 309 310 307 308 311 312 313 316 317 318 315
157 163 165 153 154 138 131 126 121 120 119 124 129 133 140 164 159 134 124 125 140 138 116 79 80 78 67 61 58 62 54 50 41 43 39 59 93 114 114 98 69 275 263 259 26 67 291 265 282 343 318 186 258 306 284 291 283 274 278 276 289 296 302 297 296 301 306 310 310 311 314 315 316 313
166 167 168 167 172 146 133 127 123 121 121 120 111 123 124 120 123 127 138 146 125 89 81 86 81 73 69 61 55 53 53 48 51 54 53 53 54 55 80 84 100 38 294 300 6 350 297 327 245 295 281 301 286 258 300 297 281 276 279 287 279 278 284 285 299 298 302 300 300 300 297 301 303 305
176 166 162 160 160 150 135 126 124 120 114 103 116 125 113 110 110 110 99 100 87 78 81 93 92 79 81 81 69 62 63 52 54 57 52 47 44 37 28 33 62 225 266 301 324 329 164 249 258 247 270 260 285 287 272 289 300 299 316 284 284 280 279 278 283 288 290 291 293 299 302 303 308 314
159 160 170 166 163 153 137 131 131 129 124 129 128 116 117 115 110 103 99 87 94 93 91 96 103 99 100 99 89 91 99 95 89 71 60 49 44 46 25 10 358 342 308 294 299 288 224 244 276 260 245 271 280 287 292 259 271 285 291 287 273 272 272 269 281 288 287 289 293 296 308 306 303 317
168 164 154 152 155 148 137 136 123 117 124 129 132 134 135 129 106 104 101 103 85 83 101 112 111 109 110 119 130 142 120 94 66 65 23 28 27 1 19 339 317 305 298 292 289 272 249 244 260 281 286 247 266 270 274 287 292 293 295 310 309 284 288 281 267 268 286 295 290 295 288 282 292 298
120 131 134 136 134 127 132 124 121 130 136 134 128 125 119 108 114 112 104 88 93 109 121 123 129 147 152 131 138 138 142 109 107 138 87 38 5 12 16 11 333 320 305 296 298 296 294 283 280 286 287 284 270 281 282 293 292 282 286 280 282 302 277 272 292 289 292 290 291 292 287 283 280 296
112 113 113 116 110 101 100 93 114 124 131 114 98 95 98 101 96 101 126 135 126 132 128 133 147 161 160 123 89 125 115 99 92 82 104 60 317 313 295 338 298 306 299 303 294 289 287 289 293 293 293 288 286 270 275 272 279 285 284 271 278 286 295 308 299 294 285 284 286 286 297 309 303 290
104 103 91 83 65 72 64 70 63 69 82 100 105 94 88 91 102 106 96 86 108 129 138 135 123 119 120 128 145 117 95 107 225 310 34 113 297 286 305 0 285 273 296 305 302 294 293 284 285 283 264 267 280 287 281 268 266 272 278 283 278 276 288 287 290 290 292 302 303 298 300 295 292 302
78 89 93 102 108 116 123 118 109 107 112 88 85 90 67 95 121 123 116 124 137 143 130 141 147 151 129 138 122 102 94 212 260 239 331 299 195 284 247 246 278 300 309 305 293 292 291 294 286 275 278 283 267 267 275 290 271 255 264 284 295 297 298 298 298 299 320 320 295 296 302 289 283 290
137 141 139 147 142 127 121 162 178 164 141 125 110 67 59 103 124 133 132 142 153 148 145 145 133 156 149 160 146 143 159 243 271 251 200 267 6 8 311 308 297 293 288 291 298 293 296 290 301 302 291 275 265 257 252 246 266 279 276 282 293 294 290 297 297 299 309 289 296 305 301 301 294 283
137 136 133 147 133 132 161 188 191 159 124 150 160 156 97 100 120 135 145 154 135 137 127 121 134 148 151 175 185 173 204 209 253 297 2 12 358 318 295 298 301 299 297 300 297 298 306 313 325 326 310 300 306 285 241 232 244 276 304 305 280 279 293 298 306 311 316 313 318 294 288 281 291 282
157 162 168 172 172 175 182 198 170 165 174 174 175 148 131 178 216 153 171 173 142 125 116 128 152 181 179 167 197 211 211 223 295 352 328 359 1 332 337 293 276 289 295 287 292 301 313 313 323 323 322 324 327 318 321 263 217 227 290 286 285 291 293 305 306 306 315 309 300 289 295 299 301 307
173 177 175 173 170 173 191 181 174 179 172 176 177 164 165 181 191 195 203 136 126 139 161 160 180 190 191 192 194 249 344 35 290 300 15 342 343 283 294 302 305 298 298 289 288 297 305 307 305 301 304 311 316 316 300 297 284 261 200 233 292 286 296 305 313 313 308 289 297 292 291 299 299 304
176 179 172 171 175 188 182 159 137 156 182 184 180 172 182 141 126 144 144 122 126 126 120 115 96 71 53 67 140 307 322 264 120 71 43 12 303 302 299 302 304 300 296 300 306 298 286 277 285 288 292 300 308 308 310 313 327 299 197 75 296 296 308 307 308 308 309 302 308 316 311 300 294 294
179 161 165 161 170 153 134 129 150 183 201 187 177 169 140 131 138 130 122 117 114 101 88 75 66 76 91 88 135 155 103 72 68 52 289 281 257 300 327 322 316 313 318 310 305 297 292 285 283 282 268 273 279 280 278 295 290 291 229 239 262 286 286 282 295 307 313 331 334 316 283 255 262 280
218 185 172 171 169 146 159 168 174 181 180 172 154 137 132 146 149 139 124 117 99 100 99 106 109 88 67 85 101 91 84 127 166 220 241 266 287 319 323 310 299 298 303 299 302 304 302 291 284 278 282 266 261 260 262 266 275 279 286 318 193 207 247 317 316 323 324 343 316 318 330 342 359 352
169 220 217 179 139 143 156 165 172 168 159 148 136 139 141 145 144 144 129 122 124 111 105 97 96 110 136 153 158 137 140 234 248 254 259 286 315 321 304 306 305 295 294 300 301 303 296 286 283 284 275 266 270 292 294 287 284 298 306 341 18 29 52 58 144 93 338 318 323 311 321 333 335 335
221 226 237 164 155 154 153 160 167 160 150 140 135 137 131 112 101 104 105 110 103 106 110 122 140 141 155 181 180 159 145 170 270 298 302 325 322 317 314 306 298 304 306 299 297 290 287 293 295 297 290 295 298 279 275 271 286 295 299 22 57 2 67 79 93 138 163 351 345 340 327 323 342 350
183 204 221 239 171 160 168 166 160 143 135 126 122 121 112 102 105 105 105 103 106 105 114 119 123 127 175 229 227 194 174 200 280 292 301 315 294 292 297 299 292 289 282 281 283 283 288 294 299 301 303 279 236 206 269 283 285 285 292 339 179 287 295 224 209 241 285 355 0 306 245 266 316 329
160 119 101 86 78 63 30 132 138 131 123 120 125 122 119 120 110 107 107 111 111 118 124 125 134 135 225 290 254 173 198 233 265 340 339 308 304 294 284 289 293 296 296 291 299 303 302 302 296 291 307 297 277 246 269 283 287 280 282 274 57 43 353 321 329 322 359 337 359 8 358 256 243 264
145 122 118 112 107 111 111 93 79 102 119 123 113 109 105 100 103 101 95 99 104 109 109 114 103 25 348 0 58 14 314 320 2 335 298 311 302 299 306 299 300 304 303 301 303 304 307 310 306 298 252 275 259 245 273 268 273 291 302 111 129 290 288 310 43 1 335 313 331 347 16 32 40 293